Regional Weather Roundup
Issued by NWS

Home | Current Version | Previous Version | Text Only | Print | Product List | Glossary Off
Versions: 1 2 3 4 5 6 7 8 9 10 11 12 13 14 15 16 17 18 19 20 21 22 23 24 25 26 27 28 29 30 31 32 33 34 35 36 37 38 39 40 41 42 43 44 45 46 47 48 49 50

525
ASUS44 KJAN 200310
RWRMS

MISSISSIPPI HOURLY WEATHER ROUNDUP
NATIONAL WEATHER SERVICE JACKSON MS
1000 PM CDT SUN OCT 19 2014

NOTE: "FAIR: INDICATES FEW OR NO CLOUDS BELOW 12,000 FEET WITH NO
SIGNIFICANT WEATHER AND/OR OBSTRUCTIONS TO VISIBILITY.

MSZ001>002-007>008-010>013-018>021-025>028-034>036-200400-
NORTHWEST MISSISSIPPI

CITY           SKY/WX    TMP DP  RH WIND       PRES   REMARKS
CLARKSDALE     FAIR      54  52  94 CALM      30.12R
CLEVELAND      FAIR      54  52  92 CALM      30.10R
GREENWOOD      CLEAR     52  50  93 CALM      30.10S
GREENVILLE     CLEAR     52  48  86 CALM      30.10S
GRENADA          N/A    N/A N/A N/A MISG        N/A
OLIVE BRANCH   CLEAR     52  52 100 CALM      30.11S
OXFORD         FAIR      48  46  93 CALM      30.12S
TUNICA         CLEAR     50  46  87 CALM      30.12R
$$

MSZ003>006-009-014>017-022>024-029>033-037>039-200400-
NORTHEAST MISSISSIPPI

CITY           SKY/WX    TMP DP  RH WIND       PRES   REMARKS
COLUMBUS AFB   CLEAR     51  50  96 CALM      30.10S
CORINTH          N/A     48  46  93 CALM        N/A
GOLDN TRIANGLE CLEAR     50  45  81 CALM      30.10R
TUPELO         CLEAR     52  48  86 CALM      30.10S
$$

MSZ040-058-200400-
CENTRAL MISSISSIPPI

CITY           SKY/WX    TMP DP  RH WIND       PRES   REMARKS
JACKSON INTL   CLEAR     52  49  89 CALM      30.10S
JACKSON HAWKNS CLEAR     55  49  80 CALM      30.10S
MERIDIAN KEY   CLEAR     50  48  93 CALM      30.10R
MERIDIAN NAS   CLEAR     51  48  89 CALM      30.10S
RAYMOND        FAIR      50  45  81 CALM      30.10S HAZE
VICKSBURG      CLEAR     47  45  93 CALM      30.11R
$$

MSZ059>079-200400-
SOUTH MISSISSIPPI

CITY           SKY/WX    TMP DP  RH WIND       PRES   REMARKS
BROOKHAVEN     FAIR      52  50  93 CALM      30.11S
COLUMBIA         N/A    N/A N/A N/A MISG        N/A
HATTIESBURG    CLEAR     53  51  93 CALM      30.10R
MCCOMB         CLEAR     55  50  83 CALM      30.09S
NATCHEZ        CLEAR     54  48  82 CALM      30.10S
PINE BELT      CLEAR     52  46  82 CALM      30.11R
$$

MSZ080>082-200400-
COASTAL MISSISSIPPI

CITY           SKY/WX    TMP DP  RH WIND       PRES   REMARKS
BILOXI         CLEAR     62  58  84 NE1       30.08R
PASCAGOULA     CLEAR     51  50  96 CALM      30.08S
GULFPORT       CLEAR     60  56  86 CALM      30.08R
$$



USA.gov is the U.S. government's official web portal to all federal, state and local government web resources and services.